Regional Weather Roundup
Issued by NWS

Home | Current Version | Previous Version | Text Only | Print | Product List | Glossary Off
Versions: 1 2 3 4 5 6 7 8 9 10 11 12 13 14 15 16 17 18 19 20 21 22 23 24 25 26 27 28 29 30 31 32 33 34 35 36 37 38 39 40 41 42 43 44 45 46 47 48 49 50

548
ASUS43 KDTX 261401
RWRMI
MICHIGAN HOURLY REGIONAL WEATHER ROUNDUP
NATIONAL WEATHER SERVICE DETROIT/PONTIAC MI
1000 AM EDT TUE SEP 26 2017

NOTE: "FAIR" INDICATES FEW OR NO CLOUDS BELOW 12,000 FEET WITH NO
SIGNIFICANT WEATHER AND/OR OBSTRUCTION TO VISIBILITY.

MIZ047>049-052>055-059>063-066>070-074>076-081>083-261500-
SOUTHEAST LOWER MICHIGAN

CITY           SKY/WX    TMP DP  RH WIND       PRES   REMARKS
ADRIAN         SUNNY     74  62  66 W5        30.02S
ALMA           SUNNY     73  60  65 SW3       30.01R
ANN ARBOR      SUNNY     74  67  78 SW5       30.01R
BAD AXE        MOSUNNY   76  65  67 W6        30.00S
CARO           MOSUNNY   76  65  68 SW3       29.99S
DETROIT CITY   SUNNY     77  68  73 W5        30.00S
DETROIT        MOSUNNY   76  67  73 SW5       30.01S
FLINT          MOSUNNY   76  66  71 SW5       30.00S
GROSSE ILE     SUNNY     75  64  68 SW3       30.00S
HILLSDALE      CLOUDY    75  63  64 CALM      30.02S
HOWELL         SUNNY     76  65  69 CALM      30.01S

CITY           SKY/WX    TMP DP  RH WIND       PRES   REMARKS
JACKSON        SUNNY     76  61  59 SW5       30.01S
LAMBERTVILLE   SUNNY     77  64  63 CALM      30.00S
LANSING        SUNNY     75  62  64 SW3       30.01R
LAPEER         FAIR      76  66  71 CALM      30.00S
MASON          SUNNY     75  65  69 CALM      30.01S
MONROE         SUNNY     76  63  64 SW6       30.00S
MT. CLEMENS    MOSUNNY   75  75 100 SE2       29.99R FOG
PONTIAC        MOSUNNY   75  69  81 S5        30.00S
PORT HOPE        N/A     76  64  66 SW6       29.97S
PORT HURON     SUNNY     77  70  78 S3        30.00S
TRI CITIES     SUNNY     74  65  73 SW6       30.00R
MIDLAND        FAIR      71  65  81 SW3       29.99R
TROY           SUNNY     76  69  79 SW3       30.02S
SAGINAW HB     SUNNY     75  63  64 SW7       29.99R
$$
MIZ043>046-050>051-056>058-064>065-071>073-077>080-261500-
SOUTHWEST LOWER MICHIGAN

CITY           SKY/WX    TMP DP  RH WIND       PRES   REMARKS
BATTLE CREEK   SUNNY     75  63  66 SW6       30.01S
BENTON HARBOR  MOSUNNY   75  62  64 S3        29.97S
BIG RAPIDS     SUNNY     65  57  77 CALM      29.99S
COLDWATER      SUNNY     76  63  64 CALM      30.01S
FREMONT        FAIR      72  59  63 CALM      29.97S
HOLLAND        SUNNY     75  60  59 S7        29.97S
GRAND RAPIDS   MOSUNNY   76  61  59 SE5       29.98S
IONIA          FAIR      78  60  53 SW6       29.99S
KALAMAZOO      SUNNY     73  61  65 S8        30.00S
LUDINGTON      SUNNY     72  61  66 SE5       29.93S
MARSHALL       SUNNY     75  64  68 CALM      30.01R
MOUNT PLEASANT SUNNY     75  60  58 CALM      29.98S
MUSKEGON       PTSUNNY   76  59  55 SE6       29.96F
SOUTH HAVEN    SUNNY     75  63  66 S3        29.97S
$$
MIZ016>042-261500-
NORTHERN LOWER MICHIGAN

CITY           SKY/WX    TMP DP  RH WIND       PRES   REMARKS
BEAVER ISLAND  SUNNY     74  61  61 S6        29.93S
BELLAIRE       SUNNY     69  59  70 CALM      29.95S
CADILLAC       SUNNY     75  56  52 CALM      29.98F
CHARLEVOIX     SUNNY     71  60  69 SE5       29.97S
FRANKFORT      MOSUNNY   75  60  58 CALM      29.93S
GAYLORD        SUNNY     72  60  66 S6        29.99S
GRAYLING       SUNNY     67  59  73 CALM      30.00R
HARBOR SPRINGS SUNNY     72  60  67 E3        29.94S
HOUGHTON LAKE  SUNNY     73  61  65 SW5       30.01R
MANISTEE       SUNNY     71  60  68 E5        29.94S
OSCODA         SUNNY     74  68  83 SW6       29.97S
PELLSTON       SUNNY     70  62  76 S3        29.95F
ROGERS CITY    SUNNY     76  63  64 CALM      29.97S
TRAVERSE CITY  MOSUNNY   76  58  53 CALM      29.93F
$$
MIZ007>008-015-261500-
EASTERN UPPER MICHIGAN

CITY           SKY/WX    TMP DP  RH WIND       PRES   REMARKS
KINROSS        SUNNY     70  65  84 S6        29.95S
MACKINAC ISLAN SUNNY     73  59  61 S8        29.94S
NEWBERRY       CLOUDY    70  66  88 S9        29.92R
S. S. MARIE    FOG       67  65  93 E3        29.94F VSB 1/4
MUNISING         N/A     66  64  93 S3        29.89F
$$
MIZ004>006-011>014-085-261500-
CENTRAL UPPER MICHIGAN

CITY           SKY/WX    TMP DP  RH WIND       PRES   REMARKS
MANISTIQUE     SUNNY     69  63  81 S6        29.91S
MENOMINEE      CLOUDY    66  65  96 CALM      29.93R FOG
SAWYER-GWINN   CLOUDY    59  59 100 SW5       29.92S
$$
MIZ001>003-009>011-084-261500-
WESTERN UPPER MICHIGAN

CITY           SKY/WX    TMP DP  RH WIND       PRES   REMARKS
IRON MOUNTAIN  CLOUDY    64  61  90 S3        29.92S FOG
HOUGHTON       FOG       57  55  93 CALM      29.90R VSB<1/4
COPPER HARBOR    N/A     58  56  93 SE7       29.89F
IRONWOOD       CLOUDY    57  57 100 CALM      29.91S FOG
$$

ABBREVIATIONS USED IN REMARKS
   TC - TEMPERATURE IN CELSIUS
  WCI - WIND CHILL INDEX
   HX - HEAT INDEX
  VSB - VISIBILITY





USA.gov is the U.S. government's official web portal to all federal, state and local government web resources and services.